Regional Weather Roundup
Issued by NWS

Home | Current Version | Previous Version | Text Only | Print | Product List | Glossary On
Versions: 1 2 3 4 5 6 7 8 9 10 11 12 13 14 15 16 17 18 19 20 21 22 23 24 25 26 27 28 29 30 31 32 33 34 35 36 37 38 39 40 41 42 43 44 45 46 47 48 49 50
000
ASUS45 KABQ 011810
RWRNM
NEW MEXICO REGIONAL WEATHER ROUNDUP
NATIONAL WEATHER SERVICE ALBUQUERQUE NM
1100 AM MST WED MAR 01 2017

NOTE: "FAIR" MEANS FEW OR NO CLOUDS BELOW 12,000 FEET AGL WITH NO
       SIGNIFICANT WEATHER OR OBSTRUCTIONS TO VISION.

      THIS PRODUCT IS RELEASED AS TWO VERSIONS.  ONE VERSION NEAR
      THE TOP OF THE HOUR CONTAINING PRELIMINARY DATA FROM ALBUQUERQUE
      AND OTHER STATIONS.  A FINAL VERSION WITH ADDITIONAL DATA IS
      ISSUED ABOUT 10 MINUTES AFTER THE HOUR.

NMZ501-503-504-510>518-011900-
NORTHWEST PLATEAU/NORTHCENTRAL MOUNTAINS

CITY           SKY/WX    TMP DP  RH WIND       PRES   REMARKS
FARMINGTON     FAIR      32  15  49 N7        30.37R WCI  26
6HR MIN TEMP:  19; 6HR MAX TEMP:  32;

LOS ALAMOS     FAIR      31   8  38 NE16      30.31R WCI  20
SANTA FE       FAIR      39   5  24 N18       30.29R WCI  30
6HR MIN TEMP:  24; 6HR MAX TEMP:  39;

TAOS           FAIR      30   5  34 NW7       30.32R WCI  23
ANGEL FIRE     FAIR      24   9  52 W12       30.27R WCI  13

$$
NMZ402-403-502-505>509-011900-
WESTCENTRAL MOUNTAINS/SOUTHWEST MOUNTAINS

CITY           SKY/WX    TMP DP  RH WIND       PRES   REMARKS
GALLUP         FAIR      31  13  47 MISG      30.39R
6HR MIN TEMP:  17; 6HR MAX TEMP:  32; 6HR PCP: TRACE;

GRANTS         FAIR      35  10  35 NW12G23   30.37S WCI  26
SILVER CITY    FAIR      50  20  31 SE7       30.31R

$$
NMZ407-409-411-412-011900-
SOUTHERN DESERTS

CITY           SKY/WX    TMP DP  RH WIND       PRES   REMARKS
DEMING         FAIR      55  20  25 NE10      30.31R
6HR MIN TEMP:  32; 6HR MAX TEMP:  55;

LAS CRUCES     FAIR      54  21  27 NE8       30.31S
HOLLOMAN AFB     N/A     54  19  25 N13       30.34R
ALAMOGORDO     FAIR      55  18  22 NW14G22   30.30S
T OR C         FAIR      48  22  35 VRB3      30.31S
6HR MIN TEMP:  36; 6HR MAX TEMP:  49;


$$
NMZ519>523-011900-
CENTRAL VALLEYS/CENTRAL HIGHLANDS

CITY           SKY/WX    TMP DP  RH WIND       PRES   REMARKS
ALBUQUERQUE    FAIR      41   1  18 N14       30.34S
6HR MIN TEMP:  31; 6HR MAX TEMP:  42;

DOUBLE EAGLE   SUNNY     39   3  22 W14G24    30.34S WCI  31
MORIARTY ARPT  FAIR      43   6  22 NW10G23   30.29S
6HR MIN TEMP:  24; 6HR MAX TEMP:  44;

CLINES CORNERS FAIR      37   6  27 NW16G26   30.28R WCI  28
6HR MIN TEMP:  24; 6HR MAX TEMP:  37;

BELEN          FAIR      43   8  24 NW12      30.35S
6HR MIN TEMP:  29; 6HR MAX TEMP:  44;

SOCORRO        FAIR      48  16  28 N9G18     30.33S
6HR MIN TEMP:  36; 6HR MAX TEMP:  48;


$$
NMZ524>526-539-540-011900-
SOUTHCENTRAL MOUNTAINS

CITY           SKY/WX    TMP DP  RH WIND       PRES   REMARKS
RUIDOSO        FAIR      45  14  29 W3        30.31S

$$
NMZ527>531-011900-
NORTHEAST HIGHLANDS/NORTHEAST PLAINS

CITY           SKY/WX    TMP DP  RH WIND       PRES   REMARKS
LAS VEGAS      FAIR      39  12  33 S13       30.25R WCI  31
6HR MIN TEMP:  17; 6HR MAX TEMP:  39;

RATON          FAIR      39  11  31 MISG      30.24R
6HR MIN TEMP:  12; 6HR MAX TEMP:  40;

CLAYTON        FAIR      45  19  35 MISG      30.28S
6HR MIN TEMP:  19; 6HR MAX TEMP:  45;


$$
NMZ532>537-011900-
EASTCENTRAL PLAINS

CITY           SKY/WX    TMP DP  RH WIND       PRES   REMARKS
TUCUMCARI      FAIR      48  20  32 VRB7      30.30S
6HR MIN TEMP:  23; 6HR MAX TEMP:  49;

CANNON AFB     FAIR      46  19  34 VRB7      30.30S
6HR MIN TEMP:  24; 6HR MAX TEMP:  47;

CLOVIS AIRPORT FAIR      46  19  34 SE8       30.31S

$$
NMZ028-029-538-011900-
SOUTHEAST PLAINS

CITY           SKY/WX    TMP DP  RH WIND       PRES   REMARKS
ROSWELL        FAIR      56  19  23 N13         N/A
6HR MIN TEMP:  42; 6HR MAX TEMP:  56;

ARTESIA        FAIR      54  23  30 NE8G15    30.31S
CARLSBAD       FAIR      55  22  27 NE6       30.31S
6HR MIN TEMP:  41; 6HR MAX TEMP:  55;

HOBBS          SUNNY     52  18  25 NE6       30.32S


$$



USA.gov is the U.S. government's official web portal to all federal, state and local government web resources and services.